Time,TemperatureF,DewpointF,PressureIn,WindDirection,WindDirectionDegrees,WindSpeedMPH,WindSpeedGustMPH,Humidity,HourlyPrecipIn,Conditions,Clouds,dailyrainin,SolarRadiationWatts/m^2,SoftwareType,DateUTC
2013-03-04 00:00:00,32.9,24.5,29.75,ESE,114,7.0,7.0,71,0.00,,,0.00,0,Wunderground v.1.15,2013-03-04 06:00:00,
2013-03-04 00:10:00,32.8,24.4,29.74,ESE,118,6.0,6.0,71,0.00,,,0.00,0,Wunderground v.1.15,2013-03-04 06:10:00,
2013-03-04 00:20:00,32.8,24.4,29.74,ESE,111,5.0,5.0,71,0.00,,,0.00,0,Wunderground v.1.15,2013-03-04 06:20:00,
2013-03-04 00:30:00,32.7,24.3,29.73,ESE,110,5.0,6.0,71,0.00,,,0.00,0,Wunderground v.1.15,2013-03-04 06:30:00,
2013-03-04 00:40:00,32.8,24.4,29.72,ESE,107,6.0,6.0,71,0.00,,,0.00,0,Wunderground v.1.15,2013-03-04 06:40:00,
2013-03-04 00:50:00,32.5,24.1,29.72,ESE,104,5.0,6.0,71,0.00,,,0.00,0,Wunderground v.1.15,2013-03-04 06:50:00,
2013-03-04 01:00:00,32.5,24.1,29.72,ESE,105,5.0,5.0,71,0.00,,,0.00,0,Wunderground v.1.15,2013-03-04 07:00:00,
2013-03-04 01:10:00,32.5,24.1,29.71,ESE,122,5.0,5.0,71,0.00,,,0.00,0,Wunderground v.1.15,2013-03-04 07:10:00,
2013-03-04 01:20:00,32.7,24.0,29.71,ESE,109,5.0,7.0,70,0.00,,,0.00,0,Wunderground v.1.15,2013-03-04 07:20:00,
2013-03-04 01:30:00,32.7,24.3,29.70,ESE,115,5.0,9.0,71,0.00,,,0.00,0,Wunderground v.1.15,2013-03-04 07:30:00,
2013-03-04 01:40:00,32.5,24.1,29.70,ESE,118,5.0,5.0,71,0.00,,,0.00,0,Wunderground v.1.15,2013-03-04 07:40:00,
2013-03-04 01:50:00,32.4,24.0,29.70,ESE,102,4.0,4.0,71,0.00,,,0.00,0,Wunderground v.1.15,2013-03-04 07:50:00,
2013-03-04 02:00:00,32.2,24.2,29.70,ESE,105,3.0,3.0,72,0.00,,,0.00,0,Wunderground v.1.15,2013-03-04 08:00:00,
2013-03-04 02:10:00,31.9,23.9,29.70,East,89,1.0,1.0,72,0.00,,,0.00,0,Wunderground v.1.15,2013-03-04 08:10:00,
2013-03-04 02:20:00,31.8,23.8,29.70,East,90,1.0,1.0,72,0.00,,,0.00,0,Wunderground v.1.15,2013-03-04 08:20:00,
2013-03-04 02:30:00,31.8,23.8,29.70,East,98,1.0,1.0,72,0.00,,,0.00,0,Wunderground v.1.15,2013-03-04 08:30:00,
2013-03-04 02:40:00,31.6,23.6,29.70,ESE,113,0.0,0.0,72,0.00,,,0.00,0,Wunderground v.1.15,2013-03-04 08:40:00,
2013-03-04 02:50:00,31.3,23.6,29.70,ESE,113,0.0,0.0,73,0.00,,,0.00,0,Wunderground v.1.15,2013-03-04 08:50:00,
2013-03-04 03:00:00,31.5,23.8,29.70,ESE,113,0.0,0.0,73,0.00,,,0.00,0,Wunderground v.1.15,2013-03-04 09:00:00,
2013-03-04 03:10:00,31.3,23.6,29.69,ESE,114,0.0,0.0,73,0.00,,,0.00,0,Wunderground v.1.15,2013-03-04 09:10:00,
2013-03-04 03:20:00,31.3,24.0,29.69,ESE,120,1.0,1.0,74,0.00,,,0.00,0,Wunderground v.1.15,2013-03-04 09:20:00,
2013-03-04 03:30:00,31.5,24.2,29.68,ESE,111,1.0,3.0,74,0.00,,,0.00,0,Wunderground v.1.15,2013-03-04 09:30:00,
2013-03-04 03:40:00,31.5,24.2,29.68,ESE,103,1.0,1.0,74,0.00,,,0.00,0,Wunderground v.1.15,2013-03-04 09:40:00,
2013-03-04 03:50:00,31.6,24.3,29.68,ESE,104,1.0,3.0,74,0.00,,,0.00,0,Wunderground v.1.15,2013-03-04 09:50:00,
2013-03-04 04:00:00,31.5,23.8,29.68,ESE,105,1.0,1.0,73,0.00,,,0.00,0,Wunderground v.1.15,2013-03-04 10:00:00,
2013-03-04 04:10:00,31.3,24.0,29.69,ESE,105,0.0,0.0,74,0.00,,,0.00,0,Wunderground v.1.15,2013-03-04 10:10:00,
2013-03-04 04:20:00,31.3,24.0,29.69,East,98,3.0,4.0,74,0.00,,,0.00,0,Wunderground v.1.15,2013-03-04 10:20:00,
2013-03-04 04:30:00,31.0,23.7,29.69,East,96,1.0,3.0,74,0.00,,,0.00,0,Wunderground v.1.15,2013-03-04 10:30:00,
2013-03-04 04:40:00,31.2,23.9,29.70,East,93,2.0,2.0,74,0.00,,,0.00,0,Wunderground v.1.15,2013-03-04 10:40:00,
2013-03-04 04:50:00,31.0,23.7,29.70,East,94,1.0,1.0,74,0.00,,,0.00,0,Wunderground v.1.15,2013-03-04 10:50:00,
2013-03-04 05:00:00,30.9,23.6,29.70,East,96,2.0,2.0,74,0.00,,,0.00,0,Wunderground v.1.15,2013-03-04 11:00:00,
2013-03-04 05:10:00,31.2,23.9,29.69,East,97,2.0,2.0,74,0.00,,,0.00,0,Wunderground v.1.15,2013-03-04 11:10:00,
2013-03-04 05:20:00,31.0,23.7,29.69,East,96,0.0,0.0,74,0.00,,,0.00,0,Wunderground v.1.15,2013-03-04 11:20:00,
2013-03-04 05:30:00,31.0,23.7,29.70,East,88,0.0,0.0,74,0.00,,,0.00,0,Wunderground v.1.15,2013-03-04 11:30:00,
2013-03-04 05:40:00,30.9,23.9,29.71,East,90,1.0,3.0,75,0.00,,,0.00,0,Wunderground v.1.15,2013-03-04 11:40:00,
2013-03-04 05:50:00,30.9,23.6,29.71,East,91,2.0,2.0,74,0.00,,,0.00,0,Wunderground v.1.15,2013-03-04 11:50:00,
2013-03-04 06:00:00,30.9,23.9,29.70,East,91,2.0,2.0,75,0.00,,,0.00,0,Wunderground v.1.15,2013-03-04 12:00:00,
2013-03-04 06:10:00,31.0,24.0,29.70,East,91,1.0,1.0,75,0.00,,,0.00,0,Wunderground v.1.15,2013-03-04 12:10:00,
2013-03-04 06:20:00,31.2,23.9,29.70,East,91,1.0,1.0,74,0.00,,,0.00,0,Wunderground v.1.15,2013-03-04 12:20:00,
2013-03-04 06:30:00,31.0,23.7,29.71,East,91,0.0,0.0,74,0.00,,,0.00,0,Wunderground v.1.15,2013-03-04 12:30:00,
2013-03-04 06:40:00,30.7,23.7,29.70,East,91,1.0,1.0,75,0.00,,,0.00,0,Wunderground v.1.15,2013-03-04 12:40:00,
2013-03-04 06:50:00,30.7,24.0,29.70,East,91,0.0,0.0,76,0.00,,,0.00,0,Wunderground v.1.15,2013-03-04 12:50:00,
2013-03-04 07:00:00,30.7,24.0,29.71,East,91,0.0,0.0,76,0.00,,,0.00,7,Wunderground v.1.15,2013-03-04 13:00:00,
2013-03-04 07:10:00,31.0,24.0,29.71,East,91,0.0,0.0,75,0.00,,,0.00,19,Wunderground v.1.15,2013-03-04 13:10:00,
2013-03-04 07:20:00,31.3,24.3,29.71,ESE,102,0.0,0.0,75,0.00,,,0.00,46,Wunderground v.1.15,2013-03-04 13:20:00,
2013-03-04 07:30:00,31.8,24.8,29.71,ESE,102,0.0,0.0,75,0.00,,,0.00,70,Wunderground v.1.15,2013-03-04 13:30:00,
2013-03-04 07:40:00,32.4,25.0,29.71,ESE,102,0.0,0.0,74,0.00,,,0.00,97,Wunderground v.1.15,2013-03-04 13:40:00,
2013-03-04 07:50:00,32.8,25.1,29.71,ESE,102,1.0,3.0,73,0.00,,,0.00,130,Wunderground v.1.15,2013-03-04 13:50:00,
2013-03-04 08:00:00,33.4,25.7,29.71,East,101,2.0,2.0,73,0.00,,,0.00,167,Wunderground v.1.15,2013-03-04 14:00:00,
2013-03-04 08:10:00,33.7,25.6,29.72,East,97,3.0,3.0,72,0.00,,,0.00,83,Wunderground v.1.15,2013-03-04 14:10:00,
2013-03-04 08:20:00,33.7,25.6,29.72,East,98,2.0,2.0,72,0.00,,,0.00,176,Wunderground v.1.15,2013-03-04 14:20:00,
2013-03-04 08:30:00,34.4,26.0,29.72,East,100,1.0,2.0,71,0.00,,,0.00,179,Wunderground v.1.15,2013-03-04 14:30:00,
2013-03-04 08:40:00,34.9,26.1,29.72,ESE,113,4.0,4.0,70,0.00,,,0.00,274,Wunderground v.1.15,2013-03-04 14:40:00,
2013-03-04 08:50:00,35.2,26.4,29.72,ESE,111,4.0,6.0,70,0.00,,,0.00,306,Wunderground v.1.15,2013-03-04 14:50:00,
2013-03-04 09:00:00,35.9,26.7,29.73,East,101,3.0,7.0,69,0.00,,,0.00,336,Wunderground v.1.15,2013-03-04 15:00:00,
2013-03-04 09:10:00,36.0,26.8,29.74,ESE,112,4.0,4.0,69,0.00,,,0.00,332,Wunderground v.1.15,2013-03-04 15:10:00,
2013-03-04 09:20:00,36.5,26.9,29.74,ESE,114,3.0,3.0,68,0.00,,,0.00,346,Wunderground v.1.15,2013-03-04 15:20:00,
2013-03-04 09:30:00,36.9,27.3,29.74,SE,126,1.0,1.0,68,0.00,,,0.00,410,Wunderground v.1.15,2013-03-04 15:30:00,
2013-03-04 09:40:00,37.5,27.9,29.74,East,87,2.0,7.0,68,0.00,,,0.00,441,Wunderground v.1.15,2013-03-04 15:40:00,
2013-03-04 09:50:00,37.6,27.6,29.74,East,98,3.0,3.0,67,0.00,,,0.00,462,Wunderground v.1.15,2013-03-04 15:50:00,
2013-03-04 10:00:00,38.5,28.1,29.75,ESE,107,1.0,1.0,66,0.00,,,0.00,490,Wunderground v.1.15,2013-03-04 16:00:00,
2013-03-04 10:10:00,39.1,28.7,29.74,ESE,107,1.0,1.0,66,0.00,,,0.00,506,Wunderground v.1.15,2013-03-04 16:10:00,
2013-03-04 10:20:00,39.6,28.4,29.74,ESE,107,0.0,4.0,64,0.00,,,0.00,536,Wunderground v.1.15,2013-03-04 16:20:00,
2013-03-04 10:30:00,39.8,29.0,29.74,ESE,107,1.0,1.0,65,0.00,,,0.00,548,Wunderground v.1.15,2013-03-04 16:30:00,
2013-03-04 10:40:00,39.9,29.1,29.74,ESE,103,2.0,2.0,65,0.00,,,0.00,571,Wunderground v.1.15,2013-03-04 16:40:00,
2013-03-04 10:50:00,40.1,29.3,29.74,ESE,107,2.0,2.0,65,0.00,,,0.00,591,Wunderground v.1.15,2013-03-04 16:50:00,
2013-03-04 11:00:00,40.6,30.1,29.75,SE,124,1.0,3.0,66,0.00,,,0.00,411,Wunderground v.1.15,2013-03-04 17:00:00,
2013-03-04 11:10:00,41.2,29.9,29.76,SE,125,0.0,0.0,64,0.00,,,0.00,626,Wunderground v.1.15,2013-03-04 17:10:00,
2013-03-04 11:20:00,41.2,29.2,29.76,SE,132,0.0,0.0,62,0.00,,,0.00,624,Wunderground v.1.15,2013-03-04 17:20:00,
2013-03-04 11:30:00,41.2,29.2,29.76,SE,129,0.0,0.0,62,0.00,,,0.00,559,Wunderground v.1.15,2013-03-04 17:30:00,
2013-03-04 11:40:00,41.2,29.2,29.77,SE,129,0.0,0.0,62,0.00,,,0.00,596,Wunderground v.1.15,2013-03-04 17:40:00,
2013-03-04 11:50:00,41.6,29.5,29.77,SSE,150,0.0,0.0,62,0.00,,,0.00,371,Wunderground v.1.15,2013-03-04 17:50:00,
2013-03-04 12:00:00,42.2,30.1,29.77,ESE,104,0.0,0.0,62,0.00,,,0.00,645,Wunderground v.1.15,2013-03-04 18:00:00,
2013-03-04 12:10:00,42.8,30.7,29.76,NNW,327,0.0,1.0,62,0.00,,,0.00,789,Wunderground v.1.15,2013-03-04 18:10:00,
2013-03-04 12:20:00,42.6,30.5,29.76,NNW,338,0.0,0.0,62,0.00,,,0.00,385,Wunderground v.1.15,2013-03-04 18:20:00,
2013-03-04 12:30:00,42.2,30.5,29.76,NW,313,1.0,5.0,63,0.00,,,0.00,272,Wunderground v.1.15,2013-03-04 18:30:00,
2013-03-04 12:40:00,41.8,30.9,29.77,WNW,302,3.0,4.0,65,0.00,,,0.00,234,Wunderground v.1.15,2013-03-04 18:40:00,
2013-03-04 12:50:00,41.8,30.9,29.77,NW,323,1.0,1.0,65,0.00,,,0.00,265,Wunderground v.1.15,2013-03-04 18:50:00,
2013-03-04 13:00:00,42.1,30.8,29.77,WNW,302,1.0,3.0,64,0.00,,,0.00,269,Wunderground v.1.15,2013-03-04 19:00:00,
2013-03-04 13:10:00,42.1,31.2,29.76,NW,319,3.0,4.0,65,0.00,,,0.00,236,Wunderground v.1.15,2013-03-04 19:10:00,
2013-03-04 13:20:00,41.5,30.6,29.76,NW,311,5.0,5.0,65,0.00,,,0.00,301,Wunderground v.1.15,2013-03-04 19:20:00,
2013-03-04 13:30:00,41.6,31.1,29.76,WNW,300,5.0,6.0,66,0.00,,,0.00,294,Wunderground v.1.15,2013-03-04 19:30:00,
2013-03-04 13:40:00,41.5,31.0,29.77,NW,312,6.0,6.0,66,0.00,,,0.00,278,Wunderground v.1.15,2013-03-04 19:40:00,
2013-03-04 13:50:00,41.2,31.1,29.77,NW,304,7.0,12.0,67,0.00,,,0.00,371,Wunderground v.1.15,2013-03-04 19:50:00,
2013-03-04 14:00:00,40.3,30.6,29.77,NW,319,9.0,9.0,68,0.00,,,0.00,271,Wunderground v.1.15,2013-03-04 20:00:00,
2013-03-04 14:10:00,39.9,30.5,29.78,NNW,327,7.0,7.0,69,0.00,,,0.00,366,Wunderground v.1.15,2013-03-04 20:10:00,
2013-03-04 14:20:00,39.5,29.4,29.78,NW,320,7.0,10.0,67,0.00,,,0.00,229,Wunderground v.1.15,2013-03-04 20:20:00,
2013-03-04 14:30:00,40.1,30.7,29.78,NW,311,7.0,9.0,69,0.00,,,0.00,529,Wunderground v.1.15,2013-03-04 20:30:00,
2013-03-04 14:40:00,39.6,29.5,29.78,NW,307,7.0,12.0,67,0.00,,,0.00,234,Wunderground v.1.15,2013-03-04 20:40:00,
2013-03-04 14:50:00,40.1,30.4,29.78,NNW,336,6.0,6.0,68,0.00,,,0.00,339,Wunderground v.1.15,2013-03-04 20:50:00,
2013-03-04 15:00:00,40.2,29.7,29.78,North,5,8.0,15.0,66,0.00,,,0.00,258,Wunderground v.1.15,2013-03-04 21:00:00,
2013-03-04 15:10:00,39.6,29.5,29.78,NNW,331,8.0,8.0,67,0.00,,,0.00,193,Wunderground v.1.15,2013-03-04 21:10:00,
2013-03-04 15:20:00,39.6,29.9,29.78,NNE,32,5.0,10.0,68,0.00,,,0.00,186,Wunderground v.1.15,2013-03-04 21:20:00,
2013-03-04 15:30:00,39.8,30.1,29.78,North,5,6.0,7.0,68,0.00,,,0.00,160,Wunderground v.1.15,2013-03-04 21:30:00,
2013-03-04 15:40:00,39.9,30.2,29.78,NNW,340,6.0,6.0,68,0.00,,,0.00,174,Wunderground v.1.15,2013-03-04 21:40:00,
2013-03-04 15:50:00,39.9,29.8,29.78,NNE,13,7.0,10.0,67,0.00,,,0.00,155,Wunderground v.1.15,2013-03-04 21:50:00,
2013-03-04 16:00:00,39.8,30.1,29.78,NNE,22,9.0,10.0,68,0.00,,,0.00,183,Wunderground v.1.15,2013-03-04 22:00:00,
2013-03-04 16:10:00,39.9,30.2,29.79,North,5,10.0,10.0,68,0.00,,,0.00,206,Wunderground v.1.15,2013-03-04 22:10:00,
2013-03-04 16:20:00,39.8,30.1,29.79,North,5,6.0,6.0,68,0.00,,,0.00,139,Wunderground v.1.15,2013-03-04 22:20:00,
2013-03-04 16:30:00,39.8,29.7,29.80,North,5,5.0,5.0,67,0.00,,,0.00,84,Wunderground v.1.15,2013-03-04 22:30:00,
2013-03-04 16:40:00,39.6,29.9,29.82,North,9,3.0,6.0,68,0.00,,,0.00,65,Wunderground v.1.15,2013-03-04 22:40:00,
2013-03-04 16:50:00,39.3,29.6,29.82,NNW,333,6.0,6.0,68,0.00,,,0.00,42,Wunderground v.1.15,2013-03-04 22:50:00,
2013-03-04 17:00:00,38.6,29.7,29.83,NNW,338,3.0,8.0,70,0.00,,,0.00,23,Wunderground v.1.15,2013-03-04 23:00:00,
2013-03-04 17:10:00,38.3,29.7,29.85,NW,324,3.0,3.0,71,0.00,,,0.00,25,Wunderground v.1.15,2013-03-04 23:10:00,
2013-03-04 17:20:00,38.2,29.6,29.85,NW,324,3.0,3.0,71,0.00,,,0.00,19,Wunderground v.1.15,2013-03-04 23:20:00,
2013-03-04 17:30:00,38.0,29.8,29.87,NW,311,3.0,3.0,72,0.00,,,0.00,12,Wunderground v.1.15,2013-03-04 23:30:00,
2013-03-04 17:40:00,37.8,29.6,29.89,WNW,289,3.0,6.0,72,0.00,,,0.00,9,Wunderground v.1.15,2013-03-04 23:40:00,
2013-03-04 17:50:00,37.6,29.7,29.89,NW,318,4.0,9.0,73,0.00,,,0.00,5,Wunderground v.1.15,2013-03-04 23:50:00,
2013-03-04 18:00:00,37.0,29.1,29.90,WNW,301,7.0,9.0,73,0.00,,,0.00,0,Wunderground v.1.15,2013-03-05 00:00:00,
2013-03-04 18:10:00,36.6,29.4,29.91,WNW,303,7.0,7.0,75,0.00,,,0.00,0,Wunderground v.1.15,2013-03-05 00:10:00,
2013-03-04 18:20:00,36.2,29.0,29.91,NW,321,6.0,6.0,75,0.00,,,0.00,0,Wunderground v.1.15,2013-03-05 00:20:00,
2013-03-04 18:30:00,36.2,29.0,29.93,NNW,331,3.0,8.0,75,0.00,,,0.00,0,Wunderground v.1.15,2013-03-05 00:30:00,
2013-03-04 18:40:00,36.2,28.7,29.92,North,355,4.0,4.0,74,0.00,,,0.00,0,Wunderground v.1.15,2013-03-05 00:40:00,
2013-03-04 18:50:00,36.3,28.8,29.92,NNW,341,4.0,6.0,74,0.00,,,0.00,0,Wunderground v.1.15,2013-03-05 00:50:00,
2013-03-04 19:00:00,36.3,29.1,29.96,NW,305,4.0,4.0,75,0.00,,,0.00,0,Wunderground v.1.15,2013-03-05 01:00:00,
2013-03-04 19:10:00,36.2,29.0,29.98,NW,314,3.0,3.0,75,0.00,,,0.00,0,Wunderground v.1.15,2013-03-05 01:10:00,
2013-03-04 19:20:00,36.2,29.0,29.98,NNW,335,4.0,4.0,75,0.00,,,0.00,0,Wunderground v.1.15,2013-03-05 01:20:00,
2013-03-04 19:30:00,36.0,28.8,29.98,NW,325,3.0,4.0,75,0.00,,,0.00,0,Wunderground v.1.15,2013-03-05 01:30:00,
2013-03-04 19:40:00,36.0,28.8,29.98,NW,315,4.0,12.0,75,0.00,,,0.00,0,Wunderground v.1.15,2013-03-05 01:40:00,
2013-03-04 19:50:00,35.9,29.1,29.98,NNW,343,6.0,6.0,76,0.00,,,0.00,0,Wunderground v.1.15,2013-03-05 01:50:00,
2013-03-04 20:00:00,35.9,28.7,29.98,North,360,5.0,5.0,75,0.00,,,0.00,0,Wunderground v.1.15,2013-03-05 02:00:00,
2013-03-04 20:10:00,35.8,29.0,29.98,NNW,345,2.0,2.0,76,0.00,,,0.00,0,Wunderground v.1.15,2013-03-05 02:10:00,
2013-03-04 20:20:00,35.6,28.8,29.98,North,355,1.0,1.0,76,0.00,,,0.00,0,Wunderground v.1.15,2013-03-05 02:20:00,
2013-03-04 20:30:00,35.6,28.8,29.98,North,5,2.0,4.0,76,0.00,,,0.00,0,Wunderground v.1.15,2013-03-05 02:30:00,
2013-03-04 20:40:00,35.6,28.8,29.98,North,5,2.0,2.0,76,0.00,,,0.00,0,Wunderground v.1.15,2013-03-05 02:40:00,
2013-03-04 20:50:00,35.6,28.8,29.98,NNW,348,0.0,0.0,76,0.00,,,0.00,0,Wunderground v.1.15,2013-03-05 02:50:00,
2013-03-04 21:00:00,35.5,28.7,29.99,NNW,344,0.0,0.0,76,0.00,,,0.00,0,Wunderground v.1.15,2013-03-05 03:00:00,
2013-03-04 21:10:00,35.3,28.8,30.00,NW,306,1.0,2.0,77,0.00,,,0.00,0,Wunderground v.1.15,2013-03-05 03:10:00,
2013-03-04 21:20:00,35.3,28.8,30.00,NNW,339,1.0,1.0,77,0.00,,,0.00,0,Wunderground v.1.15,2013-03-05 03:20:00,
2013-03-04 21:30:00,35.2,29.0,30.00,WNW,290,1.0,3.0,78,0.00,,,0.00,0,Wunderground v.1.15,2013-03-05 03:30:00,
2013-03-04 21:40:00,35.2,29.0,30.01,NNW,332,3.0,6.0,78,0.00,,,0.00,0,Wunderground v.1.15,2013-03-05 03:40:00,
2013-03-04 21:50:00,35.2,28.7,30.01,NW,323,4.0,4.0,77,0.00,,,0.00,0,Wunderground v.1.15,2013-03-05 03:50:00,
2013-03-04 22:00:00,35.2,28.7,30.02,North,355,4.0,4.0,77,0.00,,,0.00,0,Wunderground v.1.15,2013-03-05 04:00:00,
2013-03-04 22:10:00,35.2,28.4,30.02,NNW,340,4.0,4.0,76,0.00,,,0.00,0,Wunderground v.1.15,2013-03-05 04:10:00,
2013-03-04 22:20:00,35.2,28.4,30.02,North,360,2.0,2.0,76,0.00,,,0.00,0,Wunderground v.1.15,2013-03-05 04:20:00,
2013-03-04 22:30:00,35.2,28.7,30.02,North,360,2.0,2.0,77,0.00,,,0.00,0,Wunderground v.1.15,2013-03-05 04:30:00,
2013-03-04 22:40:00,34.9,28.7,30.02,NNW,340,1.0,4.0,78,0.00,,,0.00,0,Wunderground v.1.15,2013-03-05 04:40:00,
2013-03-04 22:50:00,34.9,29.0,30.02,NW,319,2.0,4.0,79,0.00,,,0.00,0,Wunderground v.1.15,2013-03-05 04:50:00,
2013-03-04 23:00:00,34.6,28.8,30.03,NW,326,6.0,6.0,79,0.00,,,0.00,0,Wunderground v.1.15,2013-03-05 05:00:00,
2013-03-04 23:10:00,34.4,28.2,30.04,NNW,342,4.0,5.0,78,0.00,,,0.00,0,Wunderground v.1.15,2013-03-05 05:10:00,
2013-03-04 23:20:00,34.4,28.2,30.04,NW,322,5.0,5.0,78,0.00,,,0.00,0,Wunderground v.1.15,2013-03-05 05:20:00,
2013-03-04 23:30:00,34.3,28.8,30.05,NW,317,3.0,3.0,80,0.00,,,0.00,0,Wunderground v.1.15,2013-03-05 05:30:00,
2013-03-04 23:40:00,34.1,28.6,30.04,NW,326,1.0,1.0,80,0.00,,,0.00,0,Wunderground v.1.15,2013-03-05 05:40:00,
2013-03-04 23:50:00,33.8,27.4,30.04,WNW,300,3.0,7.0,77,0.00,,,0.00,0,Wunderground v.1.15,2013-03-05 05:50:00,